Hoolehua, HI

2:44 PM HST on January 18, 2017 (GMT -1000)
Molokai

Weather History for PHMK - March, 2013

Change the Weather History Date:

Sunday, March 17, 2013

  Actual Average Record
Temperature  
Mean Temperature 67 °F -  
Max Temperature 73 °F 78 °F 84 °F (1977)
Min Temperature 61 °F 64 °F 57 °F (1958)
Cooling Degree Days 2    
Growing Degree Days 17 (Base 50)    
Moisture  
Dew Point 56 °F    
Average Humidity 69    
Maximum Humidity 79    
Minimum Humidity 55    
Precipitation  
Precipitation 0.04 in - - ()
Sea Level Pressure  
Sea Level Pressure 30.03 in    
Wind  
Wind Speed 8 mph (North)    
Max Wind Speed 12 mph    
Max Gust Speed 17 mph    
Visibility 10 miles    
Events      
Averages and records for this station are not official NWS values.
T = Trace of Precipitation, MM = Missing Value Source: NWS Daily Summary

Daily Weather History Graph

Daily Weather History Graph

Search for Another Location

Airport or City:

Trip Planner

Search our weather history database for the weather conditions in past years. The results will help you decide how hot, cold, wet, or windy it might be!

Date:

Astronomy

Mar. 17, 2013 Rise Set
Actual Time 6:34 AM HST 6:38 PM HST
Civil Twilight 6:12 AM HST 7:00 PM HST
Nautical Twilight 5:46 AM HST 7:26 PM HST
Astronomical Twilight 5:21 AM HST 7:52 PM HST
Moon 10:36 AM HST (3/17) No Moon Set
Length of Visible Light 12h 48m
Length of Day
12h 03m
Waxing Crescent, 33% of the Moon is Illuminated
Mar 17
Waxing Crescent
Mar 19
First Quarter
Mar 26
Full
Apr 2
Last Quarter
Apr 9
New

Hourly Weather History & Observations

Time (HST) Temp. Dew Point Humidity Pressure Visibility Wind Dir Wind Speed Gust Speed Precip Events Conditions
12:54 AM 64.0 °F 55.0 °F 73% 30.02 in 10.0 mi NNW 6.9 mph - N/A   Partly Cloudy
1:54 AM 64.0 °F 54.0 °F 70% 30.01 in 10.0 mi NNW 8.1 mph - N/A   Partly Cloudy
2:54 AM 64.0 °F 55.9 °F 75% 30.00 in 10.0 mi NNW 6.9 mph - N/A   Partly Cloudy
3:54 AM 63.0 °F 55.0 °F 75% 30.00 in 10.0 mi NNW 5.8 mph - N/A   Clear
4:54 AM 63.0 °F 55.0 °F 75% 29.99 in 10.0 mi NNW 6.9 mph - N/A   Clear
5:54 AM 63.0 °F 54.0 °F 72% 30.01 in 10.0 mi NNW 5.8 mph - N/A   Scattered Clouds
6:54 AM 63.0 °F 55.9 °F 78% 30.02 in 10.0 mi North 8.1 mph - N/A   Scattered Clouds
7:54 AM 64.9 °F 55.9 °F 73% 30.04 in 10.0 mi NNW 6.9 mph - N/A   Scattered Clouds
8:54 AM 70.0 °F 59.0 °F 68% 30.06 in 10.0 mi North 10.4 mph - N/A   Scattered Clouds
9:54 AM 66.9 °F 60.1 °F 79% 30.06 in 10.0 mi North 10.4 mph - 0.04 in   Mostly Cloudy
10:01 AM 66.2 °F 59.0 °F 78% 30.05 in 10.0 mi North 11.5 mph - N/A   Mostly Cloudy
10:54 AM 70.0 °F 55.0 °F 59% 30.06 in 10.0 mi NNW 8.1 mph - N/A   Scattered Clouds
11:54 AM 71.1 °F 55.9 °F 59% 30.06 in 10.0 mi Variable 6.9 mph - N/A   Scattered Clouds
12:54 PM 72.0 °F 55.9 °F 57% 30.03 in 10.0 mi North 10.4 mph 17.3 mph N/A   Scattered Clouds
1:54 PM 73.0 °F 57.0 °F 57% 29.99 in 10.0 mi NNE 6.9 mph - N/A   Partly Cloudy
2:54 PM 72.0 °F 55.0 °F 55% 29.98 in 10.0 mi NNW 9.2 mph 17.3 mph N/A   Clear
3:54 PM 73.0 °F 55.9 °F 55% 29.97 in 10.0 mi North 10.4 mph - N/A   Clear
4:54 PM 71.1 °F 54.0 °F 55% 29.98 in 10.0 mi North 9.2 mph - N/A   Clear
5:54 PM 69.1 °F 53.1 °F 57% 30.00 in 10.0 mi NNW 10.4 mph - N/A   Clear
6:54 PM 63.0 °F 53.1 °F 70% 30.03 in 10.0 mi North 5.8 mph - N/A   Clear
7:54 PM 61.0 °F 54.0 °F 78% 30.04 in 10.0 mi North 6.9 mph - N/A   Clear
8:54 PM 62.1 °F 55.0 °F 78% 30.06 in 10.0 mi North 4.6 mph - N/A   Clear
9:54 PM 63.0 °F 55.9 °F 78% 30.07 in 10.0 mi North 4.6 mph - N/A   Clear
10:54 PM 63.0 °F 55.9 °F 78% 30.07 in 10.0 mi North 5.8 mph - N/A   Clear
11:54 PM 64.0 °F 57.0 °F 78% 30.07 in 10.0 mi North 5.8 mph - N/A   Partly Cloudy